Location: Degersen
(52.2871°N, 9.5716°E)
Time: 06:07:27
(UTC+00:00)

SJ-11-01 - Pass Details

Date: 20 January 2026
Orbit: 673 x 690 km, 98.0° (Epoch: 18 February)

Event Time Altitude Azimuth Distance (km) Brightness Sun altitude
Rises 04:32:08 0° 13° (NNE) 3,042 7.7 -25.0°
Reaches altitude 10° 04:34:23 10° 11° (N) 2,122 6.9 -24.6°
Enters shadow 04:38:28 64° 336° (NNW) 751 4.2 -24.0°
